Regional Weather Roundup
Issued by NWS

Home | Current Version | Previous Version | Graphics & Text | Print | Product List | Glossary On
Versions: 1 2 3 4 5 6 7 8 9 10 11 12 13 14 15 16 17 18 19 20 21 22 23 24 25 26 27 28 29 30 31 32 33 34 35 36 37 38 39 40 41 42 43 44 45 46 47 48 49 50
000
ASUS45 KPSR 302310
RWRAZ

ARIZONA HOURLY REGIONAL WEATHER ROUNDUP
NATIONAL WEATHER SERVICE PHOENIX AZ
400 PM MST THU JUL 30 2015

NOTE: FAIR INDICATES FEW OR NO CLOUDS BELOW 12,000 FEET WITH NO
SIGNIFICANT WEATHER AND/OR OBSTRUCTIONS TO VISIBILITY.

AZZ001>003-036-310000-
NORTHWEST ARIZONA

CITY           SKY/WX    TMP DP  RH WIND       PRES   REMARKS
BULLHEAD CITY  PTSUNNY  106  52  16 S13G25    29.86S HX 103
KINGMAN        CLOUDY    85  50  29 SE20      30.12S
$$

AZZ004>008-015-016-018-310000-
NORTH CENTRAL ARIZONA

CITY           SKY/WX    TMP DP  RH WIND       PRES   REMARKS
GRAND CANYON   CLOUDY    79  47  32 NE9G16    30.37F
WILLIAMS       CLOUDY    75  52  43 VRB5      30.42F
PRESCOTT       PTSUNNY   81  55  40 N9        30.23F
FLAGSTAFF      CLOUDY    65  62  90 SW9       30.40F
PAYSON         MOSUNNY   86  52  30 S10G17    30.24F
PAGE           PTSUNNY   96  45  17 NW5       30.14F
$$

AZZ009>014-017-310000-
NORTHEAST ARIZONA

CITY           SKY/WX    TMP DP  RH WIND       PRES   REMARKS
WINSLOW        MOSUNNY   87  52  29 VRB3      30.21F
SAINT JOHNS    CLOUDY    77  56  48 VRB3      30.29F
SHOW LOW       MOSUNNY   72  52  49 SE10      30.35F
$$

AZZ023-310000-
GREATER PHOENIX AREA

CITY           SKY/WX    TMP DP  RH WIND       PRES   REMARKS
PHOENIX        MOSUNNY  103  55  20 VRB7      29.88F HX 101
GLENDALE       MOSUNNY  104  57  21 E3        29.91F HX 103
LUKE AFB       SUNNY    102  59  24 VRB5      29.88F HX 102
DEER VALLEY    SUNNY    100  57  23 CALM      29.91F
SCOTTSDALE     SUNNY    102  55  20 S8        29.93F HX 100
MESA-FALCON    MOSUNNY  104  57  21 SW14      29.91F HX 103
MESA-GATEWAY   MOSUNNY   91  59  33 W9        29.93F
CHANDLER       MOSUNNY  102  59  24 S6        29.91F HX 102
$$

AZZ027-028-310000-
SOUTHWEST MARICOPA COUNTY AND PINAL COUNTY

CITY           SKY/WX    TMP DP  RH WIND       PRES   REMARKS
CASA GRANDE    MOSUNNY  100  57  23 CALM      29.91F
GILA BEND      FAIR     105  57  20 W9        29.85F HX 104
$$

AZZ503-504-507>509-310000-
SOUTHEAST ARIZONA

CITY           SKY/WX    TMP DP  RH WIND       PRES   REMARKS
TUCSON         SUNNY     98  56  24 S9        30.02F
DAVIS-MONTHAN  MOSUNNY   97  56  25 NW2       30.00F
RYAN FIELD     SUNNY     97  57  26 E5        30.00F
NOGALES        LGT RAIN  89  58  34 E12       30.11F
SIERRA VISTA   PTSUNNY   85  58  39 SW9       30.19F
DOUGLAS          N/A    N/A N/A N/A MISG      30.12F
SAFFORD        MOSUNNY   93  56  28 VRB5      30.05F
$$

AZZ020-021-025-026-031-310000-
SOUTHWEST ARIZONA

CITY           SKY/WX    TMP DP  RH WIND       PRES   REMARKS
YUMA           PTSUNNY  108  62  22 W7        29.82F HX 110
$$

CAZ031-033-041-043-047-048-061-310000-
SOUTHERN CALIFORNIA

CITY           SKY/WX    TMP DP  RH WIND       PRES   REMARKS
DOWNTOWN L.A.  SUNNY     80  64  58 VRB7      29.95F
L.A. AIRPORT   MOSUNNY   74  65  73 W13       29.97F
SAN DIEGO      PTSUNNY   76  65  68 W8        30.00S
BURBANK        SUNNY     89  63  41 S8        29.95F
ONTARIO        MOSUNNY   94  65  38 W15G24    29.94F
RIVERSIDE      MOSUNNY   93  65  39 W16G22    29.93F
PALM SPRINGS   MOSUNNY  106  62  23 E5        29.86F HX 108
EL CENTRO NAS  MOSUNNY  107  61  22 VRB6      29.81F HX 109
IMPERIAL       MOSUNNY  106  62  23 E9        29.80F HX 108
BLYTHE         SUNNY    107  58  20 VRB7      29.83F HX 107
NEEDLES        TSTM      81  69  67 S26G35    29.97R
$$

NVZ020-UTZ003-310000-
SOUTHERN NEVADA-UTAH

CITY           SKY/WX    TMP DP  RH WIND       PRES   REMARKS
LAS VEGAS      MOSUNNY  103  45  14 CALM      29.92F
SALT LAKE CITY MOSUNNY   93  23   8 N13       30.22F
$$

NMZ009-TXZ055-310000-
NEW MEXICO-WEST TEXAS

CITY           SKY/WX    TMP DP  RH WIND       PRES   REMARKS
ALBUQUERQUE    PTSUNNY   82  55  39 CALM      30.30S
EL PASO        MOSUNNY   90  58  33 CALM      30.14F
$$


........................KEY........................
SKY/WX - SKY CONDITION/WEATHER
TMP    - TEMPERATURE IN FAHRENHEIT
DP     - DEW POINT IN FAHRENHEIT
RH     - RELATIVE HUMIDITY IN PERCENT
WIND   - DIRECTION AND SPEED IN MILES PER HOUR (MPH)
VRB    - VARIABLE WIND DIRECTION
PRES   - MEAN SEA LEVEL PRESSURE IN INCHES OF MERCURY
         F - FALLING PRESSURE   R - RISING PRESSURE
         S - STEADY PRESSURE
VSB    - VISIBILITY IN MILES
HX     - HEAT INDEX IN FAHRENHEIT
WCI    - WIND CHILL INDEX IN FAHRENHEIT
TC     - TEMPERATURE IN CELSIUS WHICH IS ALSO KNOWN AS
         TEMPERATURE IN CENTIGRADE
AFB    - AIR FORCE BASE
         LUKE AFB IS LUKE AIR FORCE BASE
         DAVIS-MONTHAN IS DAVIS-MONTHAN AIR FORCE BASE
NAS    - NAVAL AIR STATION
         EL CENTRO NAS IS EL CENTRO NAVAL AIR STATION
N/A    - NOT AVAILABLE




USA.gov is the U.S. government's official web portal to all federal, state and local government web resources and services.